Simultaneous Nadir Overpasses (SNOs) Predictions

Prediction of SNOs between AQUA and NPP Satellite Orbit:

Table of predicted SNOs for the next 14.0 days since TLE Epoch: 8/26/2022
Index Date (AQUA) Time (AQUA) Lat,Lon (AQUA) SZA (AQUA ) Date (NPP) Time (NPP) Lat,Lon (NPP) SZA (NPP ) Distance(km) Time Diff (sec)
1 08/28/2022 10:55:11 78.37, -94.31 84.69 08/28/2022 10:54:18 78.37, -94.28 84.72 0.62 53
2 08/28/2022 11:44:30 -78.70, 75.11 95.76 08/28/2022 11:44:55 -78.70, 75.01 95.76 2.33 25
3 08/31/2022 02:21:38 -78.23,-146.55 94.26 08/31/2022 02:20:34 -78.23,-146.61 94.20 1.52 64
4 08/31/2022 03:10:51 78.74, 23.73 85.09 08/31/2022 03:11:05 78.74, 23.71 85.08 0.56 14
5 09/02/2022 17:48:45 76.14, 153.63 89.18 09/02/2022 17:47:31 76.26, 153.16 89.28 18.08 74
6 09/02/2022 18:37:17 -78.64, -28.37 93.89 09/02/2022 18:37:20 -78.64, -28.44 93.88 1.70 3
7 09/05/2022 10:03:35 78.74, -79.41 86.90 09/05/2022 10:03:27 78.75, -79.31 86.88 2.24 8
8 09/05/2022 10:52:55 -79.03, 89.91 93.49 09/05/2022 10:54:05 -79.03, 89.89 93.54 0.54 70
9 09/08/2022 01:30:04 -78.51,-132.26 91.87 09/08/2022 01:29:46 -78.50,-132.38 91.83 2.90 18



Historial Predications of SNOs between AQUA and NPP
